Hourly Weather Roundup
Issued by NWS Central Illinois

Home | Current Version | Previous Version | Text Only | Print | Product List | Glossary On
Versions: 1 2 3 4 5 6 7 8 9 10 11 12 13 14 15 16 17 18 19 20 21 22 23 24 25 26 27 28 29 30 31 32 33 34 35 36 37 38 39 40 41 42 43 44 45 46 47 48 49 50
468
NZUS43 KILX 261210
HWRILX

AREA WEATHER ROUNDUP
NATIONAL WEATHER SERVICE, LINCOLN IL
700 AM CDT THU MAY 26 2016


CITY           SKY/WX    TMP DP  RH WIND       PRES   REMARKS
BLOOMINGTON    CLOUDY    68  68 100 S9        29.97R
6HR MIN TEMP:  66; 6HR MAX TEMP:  69;

CHAMPAIGN      CLOUDY    69  66  90 S12       29.97R
6HR MIN TEMP:  66; 6HR MAX TEMP:  71;

DANVILLE       CLOUDY    68  65  90 S7        29.96S
6HR MIN TEMP:  67; 6HR MAX TEMP:  71;

DECATUR        CLOUDY    69  66  90 S10       29.95R
6HR MIN TEMP:  68; 6HR MAX TEMP:  70;

EFFINGHAM      MOSUNNY   68  67  98 SE6       29.99S
FLORA          MOSUNNY   71  65  82 S8        29.99S
6HR MIN TEMP:  68; 6HR MAX TEMP:  71;

GALESBURG      CLOUDY    67  59  76 CALM      29.92R
JACKSONVILLE   TSTM      67  64  87 NE5       29.97S
6HR MIN TEMP:  67; 6HR MAX TEMP:  72; 6HR PCP:  0.23;

LACON          TSTM      68  63  83 W8G20     29.95R
6HR MIN TEMP:  67; 6HR MAX TEMP:  70; 6HR PCP:  0.03;

LAWRENCEVILLE  PTSUNNY   68  64  87 S9        30.02S
6HR MIN TEMP:  66; 6HR MAX TEMP:  68;

LITCHFIELD     PTSUNNY   68  65  89 S14       29.94S
$$


CITY           SKY/WX    TMP DP  RH WIND       PRES   REMARKS
LINCOLN        TSTM      66  66  97 NW8G24    29.98R
6HR MIN TEMP:  66; 6HR MAX TEMP:  72; 6HR PCP:  0.14;

MACOMB         LGT RAIN  64  64  99 S10       29.95R
MATTOON        MOSUNNY   68  64  87 S9        29.97S
6HR MIN TEMP:  67; 6HR MAX TEMP:  70;

MT CARMEL AP   CLOUDY    68  63  83 S5        30.01S
6HR MIN TEMP:  66; 6HR MAX TEMP:  68;

OLNEY-NOBLE AP MOSUNNY   66  64  94 S7        30.00S
PARIS          MOSUNNY   69  66  90 S6        29.99F
6HR MIN TEMP:  65; 6HR MAX TEMP:  70;

PEORIA         TSTM      67  63  87 SW7       29.98R
6HR MIN TEMP:  67; 6HR MAX TEMP:  70; 6HR PCP:  0.03;

PONTIAC        CLOUDY    70  67  92 S6        29.96R
RANTOUL        CLOUDY    70  67  91 S9        29.97R FOG
6HR MIN TEMP:  69; 6HR MAX TEMP:  71;

ROBINSON       PTSUNNY   67  64  93 S5        30.02S
6HR MIN TEMP:  64; 6HR MAX TEMP:  67;

SPRINGFIELD    TSTM      67  65  93 SW6G24    30.02R FOG
6HR MIN TEMP:  69; 6HR MAX TEMP:  72; 6HR PCP: TRACE;

TAYLORVILLE    CLOUDY    68  66  93 S10       29.94R
$$

...REGIONAL REPORTS...


CITY           SKY/WX    TMP DP  RH WIND       PRES   REMARKS
CHICAGO O`HARE CLOUDY    69  66  90 S10       29.92R
KANKAKEE       CLOUDY   N/A N/A N/A S9        29.96R
MOLINE         LGT RAIN  68  60  75 NW3       29.95R
MOUNT STERLING CLOUDY    64  63  96 W6        29.94R
MOUNT VERNON   MOSUNNY   68  61  77 S8        29.98F
PITTSFIELD     CLOUDY    67  65  91 CALM      29.99R
QUINCY         CLOUDY    65  63  93 SE20      29.93F
ROCKFORD       CLOUDY    69  65  86 S8        29.91F
$$


CITY           SKY/WX    TMP DP  RH WIND       PRES   REMARKS
BURLINGTON     CLOUDY    65  64  97 CALM      29.94R
CEDAR RAPIDS   CLOUDY    62  59  90 NE6       29.86F
DES MOINES     CLOUDY    62  58  86 S7        29.88S
KIRKSVILLE     CLOUDY    69  63  81 N12       29.89F
OTTUMWA        PTSUNNY   65  61  87 E9        29.88F
ST LOUIS       CLOUDY    73  66  78 S9        29.93R THUNDER
$$


CITY           SKY/WX    TMP DP  RH WIND       PRES   REMARKS
TERRE HAUTE    PTSUNNY   69  64  84 S8        30.00F
EVANSVILLE     SUNNY     66  62  87 S6        30.03S
INDIANAPOLIS   PTSUNNY   69  64  84 S9        30.02R
LAFAYETTE      CLOUDY    69  65  86 S5        29.98S
MADISON        CLOUDY    67  63  87 S6        29.86F THUNDER
MILWAUKEE      PTSUNNY   66  64  93 S9        29.89R FOG
$$






USA.gov is the U.S. government's official web portal to all federal, state and local government web resources and services.